Regional Weather Roundup
Issued by NWS

Home | Current Version | Previous Version | Text Only | Print | Product List | Glossary On
Versions: 1 2 3 4 5 6 7 8 9 10 11 12 13 14 15 16 17 18 19 20 21 22 23 24 25 26 27 28 29 30 31 32 33 34 35 36 37 38 39 40 41 42 43 44 45 46 47 48 49 50
000
ASUS46 KSTO 180715
RWRCA

NORTHERN AND CENTRAL CA REGIONAL WEATHER ROUNDUP
NATIONAL WEATHER SERVICE SACRAMENTO CA
1200 AM PDT FRI AUG 18 2017

NOTE: FAIR INDICATES FEW OR NO CLOUDS BELOW 12,000 FEET WITH NO
SIGNIFICANT WEATHER AND/OR OBSTRUCTIONS TO VISIBILITY.

CAZ001-003-180800-
NORTHWEST AREA

CITY           SKY/WX    TMP DP  RH WIND       PRES   REMARKS
CRESCENT CITY  CLOUDY    54  53  97 NE5       30.02R
UKIAH          CLEAR     69  57  65 CALM      29.96S
$$

CAZ006-505>513-180800-
BAY AREA

CITY           SKY/WX    TMP DP  RH WIND       PRES   REMARKS
SANTA ROSA     CLOUDY    58  55  90 SE7       29.98S
SAN RAFAEL     N/A       63  MM  MM MISG
NAPA           CLEAR     59  55  87 W9        29.99R
CONCORD        CLEAR     67  52  58 SW8       29.97R
OAKLAND CITY   N/A      MM  MM  MM MISG
OAKLAND        MOCLDY    60  58  92 W12       30.01R
SAN FRAN CITY  N/A       59  MM  87 MISG
SAN FRAN ARPT  PTCLDY    66  56  70 W15       30.00S
LIVERMORE      CLEAR     64  55  72 NW8       29.98S
HAYWARD        PTCLDY    61  55  81 NW7       30.01R
REDWOOD CITY   N/A       64  MM  82 MISG
MOFFETT ARPT   CLEAR     64  60  87 N7        30.01S
SAN JOSE ARPT  CLEAR     64  58  80 W6        30.00S
$$
CAZ034-037-514>518-180800-
CENTRAL COAST

CITY           SKY/WX    TMP DP  RH WIND       PRES   REMARKS
WATSONVILLE    CLEAR     58  56  93 CALM      30.03S
SALINAS        CLEAR     61  57  87 W6        30.02S
MONTEREY       CLEAR     60  54  80 CALM      30.03S
SAN LUIS OBISP CLEAR     61  56  83 NW5       30.01F
SANTA MARIA    CLEAR     59  56  89 CALM      30.02F
$$
CAZ015-016-180800-
NORTHERN SACRAMENTO VALLEY

CITY           SKY/WX    TMP DP  RH WIND       PRES   REMARKS
REDDING        CLEAR     80  64  58 NW3       29.92R
RED BLUFF      CLEAR     79  66  64 CALM      29.91R
OROVILLE       CLEAR     80  61  52 SE3       29.91R
$$
CAZ016>018-180800-
SOUTHERN SACRAMENTO VALLEY

CITY           SKY/WX    TMP DP  RH WIND       PRES   REMARKS
AUBURN         CLEAR     75  68  78 SE6       29.98S
BEALE AFB      CLEAR     74  60  60 S3        29.88S
LINCOLN        FAIR      73  52  46 S12       29.90S
MARYSVILLE     CLEAR     73  60  63 S9        29.90R
SAC INTL ARPT  CLEAR     70  56  61 SE10      29.89S
MATHER AIRPORT NOT AVBL
DOWNTOWN SAC   N/A       70  MM  MM MISG
SAC EXEC ARPT  CLEAR     67  57  70 S7        29.91S
VACAVILLE      CLEAR     72  56  57 SW8       29.90S
TRAVIS AFB     CLEAR     62  55  77 SW26      29.88F
$$
CAZ019>021-180800-
SAN JOAQUIN VALLEY

CITY           SKY/WX    TMP DP  RH WIND       PRES   REMARKS
STOCKTON       CLEAR     72  51  47 NW3       29.92R
MODESTO        CLEAR     77  54  44 N7        29.91S
MERCED         CLEAR     75  58  55 NW6       29.92R
LEMOORE        PTCLDY    77  59  53 NW8       29.93R
FRESNO         PTCLDY    81  61  50 NW10      29.93R
HANFORD        CLEAR     81  62  52 NW8       29.93R
PORTERVILLE      N/A     77  62  59 SE5       29.94S
BAKERSFIELD    CLEAR     85  60  42 E3        29.93R
$$
CAZ011-012-071-180800-
NORTHERN MOUNTAINS

CITY           SKY/WX    TMP DP  RH WIND       PRES   REMARKS
YREKA          CLEAR     70  36  28 NW6       30.12R
MOUNT SHASTA   CLEAR     70  41  34 E3        30.15R
ALTURAS        CLEAR     64  39  39 CALM      30.19R
$$
CAZ011-012-071-180800-
SIERRA NEVADA MTNS

CITY           SKY/WX    TMP DP  RH WIND       PRES   REMARKS
BLUE CANYON    CLEAR     74  43  32 VRB5      30.24S
TRUCKEE        CLEAR     55  45  67 CALM      30.30R
TAHOE VLY ARPT CLEAR     56  47  71 S3        30.31R
MAMMOTH LAKES  FAIR      58  37  45 W3        30.36R
$$




USA.gov is the U.S. government's official web portal to all federal, state and local government web resources and services.